Hourly Weather Rutka

Today, 22 April, Thursday

Time Temperature Precipitation Wind Pressure Humidity
00:00 +1°C° 0.2 mm 5 mps 754 mmHg 92%
01:00 +3°C° 0 mm 4 mps 754 mmHg 93%
02:00 +3°C° 0 mm 4 mps 754 mmHg 94%
03:00 +3°C° 0 mm 4 mps 754 mmHg 95%
04:00 +3°C° 0.1 mm 3 mps 755 mmHg 93%
05:00 +4°C° 0.1 mm 3 mps 755 mmHg 92%
06:00 +4°C° 0.1 mm 3 mps 756 mmHg 91%
07:00 +4°C° 0 mm 3 mps 756 mmHg 88%
08:00 +5°C° 0 mm 3 mps 756 mmHg 86%
09:00 +5°C° 0 mm 3 mps 756 mmHg 84%
10:00 +7°C° 0 mm 4 mps 756 mmHg 78%
11:00 +8°C° 0 mm 4 mps 756 mmHg 71%
12:00 +10°C° 0 mm 5 mps 756 mmHg 64%
13:00 +10°C° 0.7 mm 4 mps 756 mmHg 71%
14:00 +9°C° 0.7 mm 3 mps 756 mmHg 77%
15:00 +8°C° 0.7 mm 3 mps 756 mmHg 84%
16:00 +8°C° 0.1 mm 2 mps 757 mmHg 81%
17:00 +9°C° 0.1 mm 2 mps 757 mmHg 78%
18:00 +9°C° 0.1 mm 2 mps 757 mmHg 74%
19:00 +8°C° 0 mm 2 mps 757 mmHg 78%
20:00 +7°C° 0 mm 1 mps 758 mmHg 82%
21:00 +6°C° 0 mm 1 mps 758 mmHg 86%
22:00 +6°C° 0 mm 1 mps 758 mmHg 87%
23:00 +5°C° 0 mm 1 mps 758 mmHg 88%

Tomorrow, 23 April, Friday

Time Temperature Precipitation Wind Pressure Humidity
00:00 +5°C° 0 mm 1 mps 758 mmHg 89%
01:00 +4°C° 0 mm 2 mps 758 mmHg 89%
02:00 +3°C° 0 mm 2 mps 759 mmHg 90%
03:00 +3°C° 0 mm 2 mps 759 mmHg 91%
04:00 +4°C° 0 mm 2 mps 759 mmHg 90%
05:00 +4°C° 0 mm 2 mps 759 mmHg 89%
06:00 +5°C° 0 mm 2 mps 759 mmHg 88%
07:00 +7°C° 0 mm 2 mps 759 mmHg 79%
08:00 +9°C° 0 mm 3 mps 759 mmHg 69%
09:00 +12°C° 0 mm 3 mps 759 mmHg 60%
10:00 +13°C° 0 mm 3 mps 759 mmHg 55%
11:00 +14°C° 0 mm 3 mps 759 mmHg 50%
12:00 +16°C° 0 mm 3 mps 759 mmHg 45%
13:00 +16°C° 0 mm 3 mps 758 mmHg 46%
14:00 +16°C° 0 mm 2 mps 758 mmHg 48%
15:00 +15°C° 0 mm 2 mps 758 mmHg 49%
16:00 +15°C° 0 mm 2 mps 758 mmHg 53%
17:00 +14°C° 0 mm 2 mps 758 mmHg 56%
18:00 +13°C° 0 mm 2 mps 757 mmHg 59%
19:00 +13°C° 0 mm 2 mps 757 mmHg 62%
20:00 +12°C° 0 mm 2 mps 757 mmHg 65%
21:00 +10°C° 0 mm 2 mps 757 mmHg 68%
22:00 +10°C° 0 mm 2 mps 757 mmHg 71%
23:00 +9°C° 0 mm 2 mps 756 mmHg 75%

Day after tomorrow, 24 April, Saturday

Time Temperature Precipitation Wind Pressure Humidity
00:00 +9°C° 0 mm 2 mps 756 mmHg 78%
01:00 +8°C° 0 mm 2 mps 756 mmHg 81%
02:00 +7°C° 0 mm 2 mps 755 mmHg 84%
03:00 +7°C° 0 mm 2 mps 755 mmHg 87%
04:00 +7°C° 0 mm 2 mps 754 mmHg 86%
05:00 +7°C° 0 mm 3 mps 754 mmHg 85%
06:00 +7°C° 0 mm 3 mps 754 mmHg 83%
07:00 +8°C° 0 mm 3 mps 753 mmHg 79%
08:00 +8°C° 0 mm 4 mps 753 mmHg 74%
09:00 +10°C° 0 mm 4 mps 752 mmHg 69%
10:00 +10°C° 0.1 mm 4 mps 752 mmHg 69%
11:00 +11°C° 0.1 mm 4 mps 751 mmHg 69%
12:00 +10°C° 0.1 mm 5 mps 751 mmHg 69%
13:00 +10°C° 0.1 mm 4 mps 750 mmHg 74%
14:00 +8°C° 0.1 mm 4 mps 750 mmHg 79%
15:00 +7°C° 0.1 mm 4 mps 750 mmHg 84%
16:00 +7°C° 0 mm 4 mps 749 mmHg 85%
17:00 +6°C° 0 mm 4 mps 749 mmHg 86%
18:00 +6°C° 0 mm 4 mps 748 mmHg 87%
19:00 +6°C° 0 mm 4 mps 748 mmHg 88%
20:00 +6°C° 0 mm 4 mps 747 mmHg 90%
21:00 +6°C° 0 mm 4 mps 747 mmHg 91%
22:00 +5°C° 0.5 mm 4 mps 746 mmHg 92%
23:00 +5°C° 0.5 mm 4 mps 745 mmHg 93%

25 April, Sunday

Time Temperature Precipitation Wind Pressure Humidity
00:00 +5°C° 0.5 mm 4 mps 744 mmHg 94%
01:00 +4°C° 0.3 mm 4 mps 744 mmHg 95%
02:00 +3°C° 0.3 mm 4 mps 744 mmHg 95%
03:00 +1°C° 0.3 mm 5 mps 744 mmHg 96%
04:00 +1°C° 0 mm 5 mps 745 mmHg 93%
05:00 +2°C° 0 mm 5 mps 745 mmHg 90%
06:00 +3°C° 0 mm 4 mps 745 mmHg 87%
07:00 +4°C° 0 mm 4 mps 745 mmHg 83%
08:00 +3°C° 0 mm 5 mps 746 mmHg 80%
09:00 +3°C° 0 mm 5 mps 746 mmHg 76%
10:00 +6°C° 0 mm 5 mps 746 mmHg 66%
11:00 +7°C° 0 mm 5 mps 747 mmHg 55%
12:00 +9°C° 0 mm 5 mps 747 mmHg 45%
13:00 +9°C° 0 mm 5 mps 747 mmHg 45%
14:00 +9°C° 0 mm 5 mps 748 mmHg 45%
15:00 +9°C° 0 mm 5 mps 748 mmHg 45%
16:00 +8°C° 0.3 mm 5 mps 749 mmHg 49%
17:00 +7°C° 0.3 mm 5 mps 749 mmHg 54%
18:00 +6°C° 0.3 mm 4 mps 749 mmHg 58%
19:00 +5°C° 0 mm 4 mps 750 mmHg 63%
20:00 +4°C° 0 mm 4 mps 750 mmHg 68%
21:00 +3°C° 0 mm 3 mps 751 mmHg 73%
22:00 +3°C° 0 mm 3 mps 751 mmHg 75%
23:00 +2°C° 0 mm 3 mps 751 mmHg 77%

26 April, Monday

Time Temperature Precipitation Wind Pressure Humidity
00:00 +1°C° 0 mm 4 mps 751 mmHg 78%
01:00 +1°C° 0 mm 4 mps 751 mmHg 79%
02:00 0°C° 0 mm 4 mps 752 mmHg 80%
03:00 0°C° 0 mm 4 mps 752 mmHg 81%
04:00 +1°C° 0 mm 3 mps 752 mmHg 81%
05:00 +1°C° 0 mm 3 mps 752 mmHg 81%
06:00 +1°C° 0 mm 3 mps 752 mmHg 81%
07:00 +3°C° 0 mm 4 mps 752 mmHg 71%
08:00 +5°C° 0 mm 4 mps 752 mmHg 61%
09:00 +6°C° 0 mm 4 mps 753 mmHg 52%
10:00 +7°C° 0 mm 5 mps 752 mmHg 49%
11:00 +7°C° 0 mm 5 mps 752 mmHg 47%
12:00 +8°C° 0 mm 5 mps 752 mmHg 45%
13:00 +8°C° 0.1 mm 5 mps 752 mmHg 46%
14:00 +9°C° 0.1 mm 5 mps 752 mmHg 47%
15:00 +10°C° 0.1 mm 4 mps 751 mmHg 48%
16:00 +8°C° 0.2 mm 4 mps 751 mmHg 55%
17:00 +7°C° 0.2 mm 4 mps 751 mmHg 62%
18:00 +7°C° 0.2 mm 3 mps 751 mmHg 69%
19:00 +5°C° 0.1 mm 3 mps 751 mmHg 76%
20:00 +5°C° 0.1 mm 2 mps 751 mmHg 82%
21:00 +4°C° 0.1 mm 2 mps 751 mmHg 89%
22:00 +5°C° 0.1 mm 1 mps 750 mmHg 90%
23:00 +5°C° 0.1 mm 1 mps 750 mmHg 91%

27 April, Tuesday

Time Temperature Precipitation Wind Pressure Humidity
00:00 +5°C° 0.1 mm 1 mps 749 mmHg 92%
01:00 +5°C° 0.2 mm 1 mps 749 mmHg 92%
02:00 +4°C° 0.2 mm 2 mps 748 mmHg 93%
03:00 +4°C° 0.2 mm 2 mps 748 mmHg 94%
04:00 +5°C° 0.3 mm 2 mps 747 mmHg 92%
05:00 +4°C° 0.3 mm 3 mps 746 mmHg 91%
06:00 +4°C° 0.3 mm 3 mps 746 mmHg 90%
07:00 +4°C° 0.7 mm 3 mps 745 mmHg 90%
08:00 +3°C° 0.7 mm 4 mps 745 mmHg 90%
09:00 +2°C° 0.7 mm 5 mps 745 mmHg 90%
10:00 +2°C° 0.1 mm 5 mps 745 mmHg 88%
11:00 +2°C° 0.1 mm 5 mps 745 mmHg 86%
12:00 +2°C° 0.1 mm 5 mps 745 mmHg 85%
13:00 +3°C° 0.2 mm 5 mps 745 mmHg 76%
14:00 +5°C° 0.2 mm 4 mps 745 mmHg 68%
15:00 +6°C° 0.2 mm 4 mps 745 mmHg 60%
16:00 +6°C° 0.3 mm 4 mps 745 mmHg 63%
17:00 +7°C° 0.3 mm 3 mps 745 mmHg 66%
18:00 +5°C° 0.3 mm 3 mps 745 mmHg 69%
19:00 +4°C° 0.1 mm 3 mps 745 mmHg 76%
20:00 +3°C° 0.1 mm 3 mps 746 mmHg 82%
21:00 +3°C° 0.1 mm 2 mps 746 mmHg 88%
22:00 +1°C° 0 mm 3 mps 746 mmHg 88%
23:00 +1°C° 0 mm 3 mps 746 mmHg 87%
Show more